• în Republica Moldova
  • Lista ţărilor
  • Pe 7 zile
  • Temperatura apei
  • Hartă satelitară
  • Meteo pe hartă
  • Widget-uri
  • user-avatar
    Intrare

    Meteo pe oră la Mayrhofen

    Astăzi, 23 Iunie, Vineri

    Timp Temperatura Precipitaţii Vânt Presiune Umiditate
    00:00 +11°C° 0,5 mm 1 m/s 620 mmHg 88%
    01:00 +10°C° 0 mm 2 m/s 619 mmHg 92%
    02:00 +11°C° 0,8 mm 1 m/s 619 mmHg 92%
    03:00 +11°C° 0,8 mm 1 m/s 619 mmHg 91%
    04:00 +10°C° 0,8 mm 1 m/s 619 mmHg 91%
    05:00 +12°C° 0,6 mm 1 m/s 620 mmHg 88%
    06:00 +14°C° 0,6 mm 1 m/s 621 mmHg 85%
    07:00 +17°C° 0 mm 2 m/s 622 mmHg 82%
    08:00 +19°C° 0,2 mm 2 m/s 623 mmHg 73%
    09:00 +20°C° 0,2 mm 2 m/s 623 mmHg 64%
    10:00 +21°C° 0,2 mm 2 m/s 624 mmHg 54%
    11:00 +21°C° 0,5 mm 2 m/s 624 mmHg 56%
    12:00 +21°C° 0,5 mm 2 m/s 624 mmHg 58%
    13:00 +23°C° 0,5 mm 2 m/s 624 mmHg 59%
    14:00 +21°C° 0,6 mm 2 m/s 624 mmHg 61%
    15:00 +21°C° 0,6 mm 2 m/s 624 mmHg 63%
    16:00 +21°C° 0,6 mm 2 m/s 623 mmHg 64%
    17:00 +20°C° 0,4 mm 2 m/s 623 mmHg 71%
    18:00 +19°C° 0,4 mm 1 m/s 623 mmHg 77%
    19:00 +18°C° 0,4 mm 1 m/s 622 mmHg 84%
    20:00 +15°C° 0,1 mm 1 m/s 622 mmHg 87%
    21:00 +13°C° 0,1 mm 1 m/s 621 mmHg 89%
    22:00 +11°C° 0,1 mm 1 m/s 621 mmHg 92%
    23:00 +11°C° 0 mm 1 m/s 621 mmHg 93%

    Mâine, 24 Iunie, Sâmbătă

    Timp Temperatura Precipitaţii Vânt Presiune Umiditate
    00:00 +11°C° 0 mm 1 m/s 621 mmHg 93%
    01:00 +10°C° 0 mm 1 m/s 621 mmHg 93%
    02:00 +10°C° 0 mm 1 m/s 620 mmHg 93%
    03:00 +9°C° 0 mm 1 m/s 620 mmHg 93%
    04:00 +9°C° 0 mm 1 m/s 620 mmHg 93%
    05:00 +11°C° 0 mm 1 m/s 621 mmHg 87%
    06:00 +13°C° 0 mm 0 m/s 622 mmHg 80%
    07:00 +15°C° 0 mm 0 m/s 623 mmHg 74%
    08:00 +17°C° 0 mm 0 m/s 623 mmHg 65%
    09:00 +21°C° 0 mm 1 m/s 624 mmHg 56%
    10:00 +23°C° 0 mm 1 m/s 625 mmHg 48%
    11:00 +23°C° 0,2 mm 1 m/s 624 mmHg 49%
    12:00 +23°C° 0,2 mm 1 m/s 624 mmHg 51%
    13:00 +24°C° 0,2 mm 2 m/s 624 mmHg 52%
    14:00 +23°C° 0,7 mm 1 m/s 623 mmHg 56%
    15:00 +22°C° 0,7 mm 1 m/s 623 mmHg 61%
    16:00 +22°C° 0,7 mm 1 m/s 623 mmHg 65%
    17:00 +20°C° 0,7 mm 1 m/s 622 mmHg 73%
    18:00 +19°C° 0,7 mm 1 m/s 622 mmHg 81%
    19:00 +16°C° 0,7 mm 1 m/s 621 mmHg 89%
    20:00 +15°C° 0,9 mm 1 m/s 621 mmHg 92%
    21:00 +12°C° 0,9 mm 0 m/s 620 mmHg 95%
    22:00 +10°C° 0,9 mm 0 m/s 620 mmHg 98%
    23:00 +10°C° 0,5 mm 0 m/s 619 mmHg 98%

    Poimâine, 25 Iunie, Duminică

    Timp Temperatura Precipitaţii Vânt Presiune Umiditate
    00:00 +10°C° 0,5 mm 0 m/s 619 mmHg 98%
    01:00 +10°C° 0,5 mm 0 m/s 619 mmHg 98%
    02:00 +10°C° 0,6 mm 0 m/s 619 mmHg 98%
    03:00 +10°C° 0,6 mm 0 m/s 619 mmHg 98%
    04:00 +10°C° 0,6 mm 0 m/s 619 mmHg 98%
    05:00 +12°C° 1,3 mm 1 m/s 619 mmHg 97%
    06:00 +12°C° 1,3 mm 1 m/s 619 mmHg 95%
    07:00 +13°C° 1,3 mm 1 m/s 619 mmHg 94%
    08:00 +13°C° 1,2 mm 1 m/s 619 mmHg 92%
    09:00 +13°C° 1,2 mm 1 m/s 619 mmHg 90%
    10:00 +14°C° 1,2 mm 1 m/s 620 mmHg 88%
    11:00 +15°C° 0,4 mm 1 m/s 620 mmHg 82%
    12:00 +16°C° 0,4 mm 1 m/s 620 mmHg 76%
    13:00 +17°C° 0,4 mm 2 m/s 621 mmHg 70%
    14:00 +17°C° 0,3 mm 2 m/s 621 mmHg 68%
    15:00 +17°C° 0,3 mm 2 m/s 620 mmHg 66%
    16:00 +18°C° 0,3 mm 2 m/s 620 mmHg 64%
    17:00 +17°C° 0,2 mm 2 m/s 620 mmHg 70%
    18:00 +16°C° 0,2 mm 1 m/s 620 mmHg 76%
    19:00 +15°C° 0,2 mm 1 m/s 620 mmHg 82%
    20:00 +12°C° 0 mm 1 m/s 619 mmHg 86%
    21:00 +10°C° 0 mm 1 m/s 619 mmHg 91%
    22:00 +8°C° 0 mm 1 m/s 618 mmHg 95%
    23:00 +8°C° 0 mm 1 m/s 618 mmHg 96%

    26 Iunie, Luni

    Timp Temperatura Precipitaţii Vânt Presiune Umiditate
    00:00 +7°C° 0 mm 1 m/s 618 mmHg 96%
    01:00 +5°C° 0 mm 0 m/s 617 mmHg 96%
    02:00 +5°C° 0 mm 0 m/s 617 mmHg 96%
    03:00 +5°C° 0 mm 1 m/s 617 mmHg 96%
    04:00 +5°C° 0 mm 1 m/s 617 mmHg 96%
    05:00 +7°C° 0 mm 0 m/s 618 mmHg 90%
    06:00 +10°C° 0 mm 0 m/s 619 mmHg 83%
    07:00 +13°C° 0 mm 0 m/s 620 mmHg 77%
    08:00 +15°C° 0 mm 0 m/s 621 mmHg 68%
    09:00 +19°C° 0 mm 1 m/s 622 mmHg 59%
    10:00 +21°C° 0 mm 1 m/s 622 mmHg 51%
    11:00 +21°C° 0 mm 1 m/s 622 mmHg 49%
    12:00 +21°C° 0 mm 2 m/s 622 mmHg 48%
    13:00 +23°C° 0 mm 2 m/s 622 mmHg 47%
    14:00 +21°C° 0,2 mm 2 m/s 622 mmHg 51%
    15:00 +21°C° 0,2 mm 2 m/s 621 mmHg 55%
    16:00 +20°C° 0,2 mm 2 m/s 621 mmHg 59%
    17:00 +19°C° 0,5 mm 2 m/s 620 mmHg 67%
    18:00 +18°C° 0,5 mm 2 m/s 620 mmHg 75%
    19:00 +18°C° 0,5 mm 1 m/s 620 mmHg 83%
    20:00 +15°C° 0,7 mm 1 m/s 619 mmHg 88%
    21:00 +14°C° 0,7 mm 2 m/s 619 mmHg 92%
    22:00 +12°C° 0,7 mm 2 m/s 618 mmHg 96%
    23:00 +12°C° 0,6 mm 2 m/s 618 mmHg 96%

    27 Iunie, Marţi

    Timp Temperatura Precipitaţii Vânt Presiune Umiditate
    00:00 +12°C° 0,6 mm 2 m/s 618 mmHg 96%
    01:00 +12°C° 0,6 mm 2 m/s 618 mmHg 96%
    02:00 +12°C° 0 mm 2 m/s 617 mmHg 96%
    03:00 +10°C° 0 mm 2 m/s 617 mmHg 96%
    04:00 +10°C° 0 mm 2 m/s 617 mmHg 95%
    05:00 +12°C° 0,1 mm 2 m/s 617 mmHg 93%
    06:00 +13°C° 0,1 mm 2 m/s 618 mmHg 90%
    07:00 +14°C° 0,1 mm 2 m/s 618 mmHg 88%
    08:00 +16°C° 0,2 mm 2 m/s 619 mmHg 80%
    09:00 +17°C° 0,2 mm 2 m/s 619 mmHg 73%
    10:00 +19°C° 0,2 mm 2 m/s 620 mmHg 65%
    11:00 +19°C° 0,4 mm 2 m/s 620 mmHg 63%
    12:00 +20°C° 0,4 mm 2 m/s 619 mmHg 62%
    13:00 +21°C° 0,4 mm 2 m/s 619 mmHg 60%
    14:00 +21°C° 0,7 mm 2 m/s 619 mmHg 61%
    15:00 +20°C° 0,7 mm 2 m/s 619 mmHg 62%
    16:00 +20°C° 0,7 mm 2 m/s 619 mmHg 64%
    17:00 +19°C° 0,7 mm 2 m/s 618 mmHg 70%
    18:00 +18°C° 0,7 mm 2 m/s 618 mmHg 76%
    19:00 +18°C° 0,7 mm 1 m/s 617 mmHg 83%
    20:00 +16°C° 0,1 mm 2 m/s 617 mmHg 86%
    21:00 +14°C° 0,1 mm 2 m/s 616 mmHg 90%
    22:00 +12°C° 0,1 mm 2 m/s 615 mmHg 93%
    23:00 +12°C° 0 mm 2 m/s 615 mmHg 93%

    28 Iunie, Miercuri

    Timp Temperatura Precipitaţii Vânt Presiune Umiditate
    00:00 +12°C° 0 mm 2 m/s 615 mmHg 94%
    01:00 +10°C° 0 mm 2 m/s 614 mmHg 94%
    02:00 +10°C° 0 mm 2 m/s 614 mmHg 94%
    03:00 +10°C° 0 mm 2 m/s 614 mmHg 94%
    04:00 +10°C° 0 mm 2 m/s 614 mmHg 94%
    05:00 +12°C° 0 mm 2 m/s 614 mmHg 91%
    06:00 +14°C° 0 mm 2 m/s 615 mmHg 87%
    07:00 +15°C° 0 mm 2 m/s 615 mmHg 83%
    08:00 +17°C° 0,1 mm 2 m/s 616 mmHg 75%
    09:00 +18°C° 0,1 mm 2 m/s 616 mmHg 67%
    10:00 +20°C° 0,1 mm 2 m/s 617 mmHg 60%
    11:00 +20°C° 1 mm 3 m/s 617 mmHg 62%
    12:00 +20°C° 1 mm 3 m/s 616 mmHg 65%
    13:00 +20°C° 1 mm 3 m/s 616 mmHg 67%
    14:00 +19°C° 1,7 mm 3 m/s 615 mmHg 71%
    15:00 +18°C° 1,7 mm 3 m/s 615 mmHg 75%
    16:00 +18°C° 1,7 mm 2 m/s 614 mmHg 79%
    17:00 +17°C° 2,7 mm 2 m/s 613 mmHg 84%
    18:00 +15°C° 2,7 mm 2 m/s 613 mmHg 89%
    19:00 +14°C° 2,7 mm 2 m/s 612 mmHg 94%
    20:00 +12°C° 0,8 mm 3 m/s 612 mmHg 94%
    21:00 +12°C° 0,8 mm 3 m/s 611 mmHg 95%
    22:00 +11°C° 0,8 mm 3 m/s 611 mmHg 95%
    23:00 +11°C° 0,9 mm 3 m/s 610 mmHg 95%
    Arată mai mult